Location: Newark
(47.5833°N, 8.1500°E)
Time: 11:49:50
(UTC+00:00)

Vanguard 2 Rocket - Pass Details

Date: 28 October 2020
Orbit: 553 x 3326 km, 32.9° (Epoch: 04 December)

Event Time Altitude Azimuth Distance (km) Brightness Sun altitude
Rises 20:40:51 0° 244° (WSW) 3,005 - -43.8°
Reaches altitude 10° 20:43:39 10° 223° (SW) 2,322 - -44.2°
Maximum altitude 20:47:07 17° 183° (S) 2,189 - -44.7°
Drops below altitude 10° 20:51:39 10° 145° (SE) 3,175 - -45.3°
Sets 20:56:29 0° 128° (SE) 4,716 - -45.9°
